| time (UTC) | temp C | wind direction | speed KPH | gust KPH | rain 1hr cm | rain 24hr cm | rain mn cm | humidity % | barometer mb |
| 20260507214827 | 6 | 138 | 4.8 | 11.3 | 0.00 | 0.25 | 0.25 | 90 | 1017.2 |
| 20260507213827 | 6 | 130 | 4.8 | 11.3 | 0.00 | 0.25 | 0.25 | 90 | 1017.2 |
| 20260507211828 | 7 | 127 | 6.4 | 12.9 | 0.00 | 0.25 | 0.25 | 90 | 1017.1 |
| 20260507210827 | 7 | 118 | 6.4 | 12.9 | 0.00 | 0.25 | 0.25 | 90 | 1017.1 |
| 20260507205827 | 7 | 114 | 6.4 | 14.5 | 0.00 | 0.25 | 0.25 | 83 | 1017.1 |
| 20260507204829 | 7 | 114 | 6.4 | 14.5 | 0.00 | 0.25 | 0.25 | 83 | 1017.1 |
| 20260507203827 | 8 | 110 | 6.4 | 14.5 | 0.00 | 0.25 | 0.25 | 83 | 1017.1 |
| 20260507201827 | 9 | 108 | 8.0 | 17.7 | 0.00 | 0.25 | 0.25 | 82 | 1017.0 |
| 20260507194828 | 10 | 105 | 8.0 | 19.3 | 0.00 | 0.25 | 0.25 | 69 | 1016.8 |
| 20260507191827 | 11 | 114 | 9.7 | 19.3 | 0.00 | 0.25 | 0.25 | 69 | 1016.6 |
| 20260507190827 | 11 | 118 | 9.7 | 19.3 | 0.00 | 0.25 | 0.25 | 69 | 1016.6 |
| 20260507185828 | 12 | 120 | 9.7 | 22.5 | 0.00 | 0.25 | 0.25 | 64 | 1016.2 |
| 20260507152827 | 13 | 81 | 14.5 | 25.7 | 0.00 | 0.30 | 0.25 | 63 | 1016.5 |
| 20260507134827 | 13 | 77 | 12.9 | 16.1 | 0.00 | 0.25 | 0.20 | 64 | 1016.6 |
| 20260507130827 | 12 | 42 | 8.0 | 16.1 | 0.00 | 0.25 | 0.20 | 64 | 1016.6 |
| 20260507125828 | 12 | 27 | 9.7 | 14.5 | 0.05 | 0.25 | 0.20 | 79 | 1016.8 |
| 20260507123827 | 12 | 52 | 8.0 | 14.5 | 0.00 | 0.20 | 0.15 | 63 | 1016.8 |
| 20260507120827 | 12 | 28 | 4.8 | 12.9 | 0.00 | 0.20 | 0.15 | 63 | 1016.8 |
| 20260507113827 | 12 | 25 | 6.4 | 19.3 | 0.00 | 0.30 | 0.25 | 71 | 1016.6 |
| 20260507112827 | 12 | 24 | 8.0 | 19.3 | 0.00 | 0.30 | 0.25 | 71 | 1016.6 |
| 20260507111827 | 12 | 24 | 8.0 | 19.3 | 0.00 | 0.30 | 0.25 | 71 | 1016.6 |
| 20260507104827 | 12 | 81 | 4.8 | 14.5 | 0.00 | 0.18 | 0.13 | 67 | 1016.6 |
| 20260507103827 | 12 | 65 | 4.8 | 14.5 | 0.00 | 0.18 | 0.13 | 67 | 1016.6 |
| 20260507081827 | 11 | 58 | 4.8 | 12.9 | 0.00 | 0.15 | 0.10 | 77 | 1016.7 |